Regional Weather Roundup
Issued by NWS

Home | Current Version | Previous Version | Graphics & Text | Print | Product List | Glossary On
Versions: 1 2 3 4 5 6 7 8 9 10 11 12 13 14 15 16 17 18 19 20 21 22 23 24 25 26 27 28 29 30 31 32 33 34 35 36 37 38 39 40 41 42 43 44 45 46 47 48 49 50
000
ASUS45 KSLC 251610
RWRUT

UTAH REGIONAL WEATHER ROUNDUP
NATIONAL WEATHER SERVICE SALT LAKE CITY UT
1000 AM MDT MON SEP 25 2017

UTZ001>011-023>025-251700-

NORTHERN UTAH

CITY           SKY/WX    TMP DP  RH WIND       PRES   REMARKS
BRIGHAM CITY   SUNNY     46  40  80 CALM      30.16S
DUGWAY         MOSUNNY   47  36  66 VRB2      30.14R
HILL AFB       SUNNY     45  39  79 E13       30.15R
LOGAN          CLOUDY    44  43  96 CALM      30.16S FOG
OGDEN          SUNNY     48  40  73 CALM      30.15R
SALT LAKE CITY MOSUNNY   48  41  76 SE6       30.15R
TOOELE VALLEY  SUNNY     48  39  71 S7        30.15S
WENDOVER       MOSUNNY   47  39  74 VRB5      30.14S
HEBER CITY     CLOUDY    41  34  75 CALM      30.15S
WEST JORDAN    SUNNY     48  44  87 SE5       30.16R

$$

UTZ011>015-024>027-251700-

CENTRAL/NORTHEAST UTAH

CITY           SKY/WX    TMP DP  RH WIND       PRES   REMARKS
PROVO AIRPORT  MOSUNNY   46  40  79 S5        30.17S
MOAB/CANYONLAN SUNNY     51  33  50 CALM      30.09R
DELTA            N/A    N/A N/A N/A MISG        N/A
PRICE          SUNNY     48  31  51 SW3       30.11S
RICHFIELD      SUNNY     39  37  93 CALM      30.19R
ROOSEVELT      SUNNY     45  36  70 CALM      30.17S
VERNAL         SUNNY     46  37  71 CALM      30.15R

$$

UTZ013>016-019>022-027-251700-

SOUTHERN UTAH

CITY           SKY/WX    TMP DP  RH WIND       PRES   REMARKS
BRYCE CANYON   SUNNY     41  25  53 NE13      30.14F
CEDAR CITY     SUNNY     42  32  67 CALM      30.12R
MILFORD        SUNNY     44  36  73 N6        30.13S
ST GEORGE      MOSUNNY   56  29  35 VRB3      30.06S
HANKSVILLE     SUNNY     50  30  46 CALM      30.13R
BLANDING         N/A     52  27  38 SE7       30.16R

$$

REGIONAL REPORTS     COLORADO/ARIZONA

CITY           SKY/WX    TMP DP  RH WIND       PRES   REMARKS
CRAIG, CO      CLOUDY    39  32  76 CALM      30.15S
GRAND JUNCTION SUNNY     50  33  52 VRB5      30.10S
RIFLE, CO      SUNNY     45  30  55 CALM      30.13S
MONTROSE, CO   SUNNY     46  27  47 CALM      30.14S
CORTEZ, CO     SUNNY     48  19  31 CALM      30.08S
PAGE, AZ       SUNNY     56  27  32 N5        30.07R
GRAND CANYON   SUNNY     52  24  33 NE13      30.11R
KINGMAN, AZ    MOSUNNY   59  29  31 N8        30.01S
FLAGSTAFF, AZ  SUNNY     50  17  27 E9        30.10R

$$

REGIONAL REPORTS    NEVADA/IDAHO/WYOMING

CITY           SKY/WX    TMP DP  RH WIND       PRES   REMARKS
LAS VEGAS, NV  MOSUNNY   66  29  24 NE8       30.01R
ELY, NY        SUNNY     36  28  73 S5        30.17S WCI  32
ELKO, NV       CLOUDY    42  31  64 W6        30.15S
POCATELLO, ID  MOSUNNY   48  37  65 NW3       30.16S
BURLEY, ID     SUNNY     47  35  63 SW5       30.13S
FORT BRIDGER,  PTSUNNY   41  37  87 W10       30.19R
EVANSTON, WY   CLOUDY    37  34  89 W5        30.17R WCI  33
ROCK SPRINGS,  CLOUDY    36  34  92 SW7       30.14R WCI  30

$$



USA.gov is the U.S. government's official web portal to all federal, state and local government web resources and services.